Hourly Weather Roundup
Issued by NWS Central Illinois

Home | Current Version | Previous Version | Text Only | Print | Product List | Glossary On
Versions: 1 2 3 4 5 6 7 8 9 10 11 12 13 14 15 16 17 18 19 20 21 22 23 24 25 26 27 28 29 30 31 32 33 34 35 36 37 38 39 40 41 42 43 44 45 46 47 48 49 50
000
NZUS43 KILX 271810
HWRILX

AREA WEATHER ROUNDUP
NATIONAL WEATHER SERVICE, LINCOLN IL
100 PM CDT FRI MAR 27 2015


CITY           SKY/WX    TMP DP  RH WIND       PRES   REMARKS
BLOOMINGTON    MOSUNNY   33  14  45 NW17G23   30.16S WCI  22
6HR MIN TEMP:  27; 6HR MAX TEMP:  34;

CHAMPAIGN      PTSUNNY   33  19  56 N12       30.13F WCI  24
6HR MIN TEMP:  30; 6HR MAX TEMP:  35; 6HR PCP: TRACE;

DECATUR        PTSUNNY   37  14  38 NW16G26   30.15F WCI  28
6HR MIN TEMP:  30; 6HR MAX TEMP:  39;

EFFINGHAM      PTSUNNY   37  15  41 NW14G22   30.15F WCI  28
FLORA          CLOUDY    38  24  59 N13G21    30.14S WCI  30
6HR MIN TEMP:  33; 6HR MAX TEMP:  38;

GALESBURG      SUNNY     33  10  37 N12G18    30.20F WCI  24
JACKSONVILLE   CLOUDY    38  19  44 N9G17     30.19S WCI  32
6HR MIN TEMP:  31; 6HR MAX TEMP:  39;

LACON          SUNNY     32   8  36 N9G16     30.19F WCI  24
6HR MIN TEMP:  26; 6HR MAX TEMP:  32;

LAWRENCEVILLE  CLOUDY    37  24  59 N21       30.12S WCI  26
6HR MIN TEMP:  34; 6HR MAX TEMP:  38; 6HR PCP: TRACE;

LITCHFIELD     PTSUNNY   34  21  60 NW15G22   30.17S WCI  24
$$


CITY           SKY/WX    TMP DP  RH WIND       PRES   REMARKS
LINCOLN        SUNNY     37  15  41 N12G26    30.18F WCI  29
6HR MIN TEMP:  29; 6HR MAX TEMP:  37; 6HR PCP:  0.01;

MACOMB         SUNNY     36  15  41 N14G22    30.22F WCI  27
MATTOON        CLOUDY    35  19  52 N20G28    30.12S WCI  24
6HR MIN TEMP:  31; 6HR MAX TEMP:  37; 6HR PCP: TRACE;

MT CARMEL AP   CLOUDY    39  23  52 NW16      30.11S WCI  30
OLNEY-NOBLE AP CLOUDY    36  23  60 N14G21    30.14R WCI  27
PARIS          LGT SNOW  32  27  83 N9        30.13R WCI  24
6HR MIN TEMP:  31; 6HR MAX TEMP:  34;

PEORIA         SUNNY     34   9  35 N9G20     30.19S WCI  27
6HR MIN TEMP:  28; 6HR MAX TEMP:  35;

PONTIAC        SUNNY     33  12  43 N14G22    30.17S WCI  23
RANTOUL        CLOUDY    32  24  70 N13       30.14F WCI  23
6HR MIN TEMP:  30; 6HR MAX TEMP:  33;

ROBINSON       CLOUDY    35  24  63 NW15      30.14R WCI  25
6HR MIN TEMP:  32; 6HR MAX TEMP:  36;

SPRINGFIELD    MOSUNNY   38  14  37 NW10G25   30.18F WCI  31
6HR MIN TEMP:  29; 6HR MAX TEMP:  39;

TAYLORVILLE    CLOUDY    34  21  60 N17G24    30.16F WCI  23
$$

...REGIONAL REPORTS...


CITY           SKY/WX    TMP DP  RH WIND       PRES   REMARKS
CHICAGO O`HARE MOSUNNY   29  10  45 NE13      30.16S WCI  19
KANKAKEE       MOSUNNY   32  13  45 N10       30.15F WCI  23
MOLINE         SUNNY     34   9  35 NW15G21   30.22F WCI  24
MOUNT VERNON   CLOUDY    37  25  60 N9        30.14F WCI  31
PITTSFIELD     PTSUNNY   37  22  56 N10       30.20F WCI  30
QUINCY         CLOUDY    36  20  52 N10       30.20F WCI  28
ROCKFORD       MOSUNNY   32   5  32 N18       30.21S WCI  20
$$


CITY           SKY/WX    TMP DP  RH WIND       PRES   REMARKS
BURLINGTON     SUNNY     36  11  35 NW13G20   30.21F WCI  27
CEDAR RAPIDS   SUNNY     32   8  36 VRB6      30.22F WCI  26
DES MOINES     PTSUNNY   39   9  29 VRB5      30.25F
KIRKSVILLE     SUNNY     39  14  36 N12G21    30.22S WCI  32
OTTUMWA        SUNNY     36  10  34 VRB7G20   30.23R WCI  30
ST LOUIS       PTSUNNY   38  23  55 N12       30.19S WCI  30
$$


CITY           SKY/WX    TMP DP  RH WIND       PRES   REMARKS
TERRE HAUTE    CLOUDY    34  25  69 N13       30.11S WCI  25
EVANSVILLE     CLOUDY    40  27  59 N13G18    30.10S WCI  32
INDIANAPOLIS   FLURRIES  32  18  56 N14       30.07S WCI  22
LAFAYETTE      FLURRIES  30  17  58 N18G24    30.12S WCI  18
MADISON        SUNNY     29   4  34 N8G20     30.19F WCI  21
MILWAUKEE      MOSUNNY   27   8  44 NE16G23   30.18S WCI  15
$$




USA.gov is the U.S. government's official web portal to all federal, state and local government web resources and services.